When you browse on this site, cookies collect data to enhance your experience and personalize the content and advertising you see.
Visit our Privacy Policy to learn more. By continuing to use the site, you agree to this use of cookies and data.
  • In Latvia
  • List of Countries
  • For 7 days
  • Water Temperature
  • Satellite Maps
  • Weather Map
  • Weather Widgets
  • user-avatar
    Login

    Hourly Weather Salzburg

    Today, 25 March, Monday

    Time Temperature Precipitation Wind Pressure Humidity
    00:00 +2°C° 0.2 mm 1 mps 626 mmHg 97%
    01:00 +2°C° 0.2 mm 1 mps 625 mmHg 98%
    02:00 +2°C° 0.1 mm 1 mps 625 mmHg 98%
    03:00 +2°C° 0.1 mm 1 mps 625 mmHg 98%
    04:00 +1°C° 0.1 mm 1 mps 625 mmHg 98%
    05:00 +1°C° 0.4 mm 1 mps 624 mmHg 97%
    06:00 +1°C° 0.4 mm 1 mps 624 mmHg 97%
    07:00 +1°C° 0.4 mm 1 mps 624 mmHg 97%
    08:00 +1°C° 0.5 mm 1 mps 624 mmHg 96%
    09:00 -1°C° 0.5 mm 2 mps 624 mmHg 94%
    10:00 -1°C° 0.5 mm 2 mps 623 mmHg 93%
    11:00 -1°C° 0.5 mm 2 mps 623 mmHg 92%
    12:00 -1°C° 0.5 mm 2 mps 623 mmHg 90%
    13:00 -2°C° 0.5 mm 2 mps 622 mmHg 89%
    14:00 -2°C° 0.8 mm 2 mps 622 mmHg 90%
    15:00 -3°C° 0.8 mm 2 mps 622 mmHg 91%
    16:00 -3°C° 0.8 mm 2 mps 622 mmHg 92%
    17:00 -4°C° 0.9 mm 2 mps 622 mmHg 93%
    18:00 -5°C° 0.9 mm 2 mps 622 mmHg 94%
    19:00 -6°C° 0.9 mm 2 mps 622 mmHg 94%
    20:00 -6°C° 0.5 mm 2 mps 623 mmHg 94%
    21:00 -7°C° 0.5 mm 3 mps 623 mmHg 94%
    22:00 -8°C° 0.5 mm 3 mps 624 mmHg 94%
    23:00 -7°C° 0.6 mm 2 mps 624 mmHg 95%

    Tomorrow, 26 March, Tuesday

    Time Temperature Precipitation Wind Pressure Humidity
    00:00 -7°C° 0.6 mm 2 mps 625 mmHg 95%
    01:00 -6°C° 0.6 mm 1 mps 625 mmHg 95%
    02:00 -7°C° 0.6 mm 1 mps 625 mmHg 95%
    03:00 -7°C° 0.6 mm 1 mps 625 mmHg 95%
    04:00 -7°C° 0.6 mm 1 mps 625 mmHg 96%
    05:00 -7°C° 0.3 mm 1 mps 626 mmHg 95%
    06:00 -7°C° 0.3 mm 1 mps 626 mmHg 95%
    07:00 -7°C° 0.3 mm 1 mps 627 mmHg 94%
    08:00 -6°C° 0.3 mm 1 mps 627 mmHg 91%
    09:00 -4°C° 0.3 mm 1 mps 627 mmHg 88%
    10:00 -5°C° 0.3 mm 2 mps 628 mmHg 85%
    11:00 -5°C° 0.2 mm 2 mps 628 mmHg 84%
    12:00 -4°C° 0.2 mm 2 mps 628 mmHg 83%
    13:00 -3°C° 0.2 mm 2 mps 628 mmHg 82%
    14:00 -3°C° 0.1 mm 2 mps 628 mmHg 83%
    15:00 -3°C° 0.1 mm 2 mps 628 mmHg 83%
    16:00 -3°C° 0.1 mm 2 mps 628 mmHg 84%
    17:00 -3°C° 0.1 mm 1 mps 628 mmHg 87%
    18:00 -4°C° 0.1 mm 1 mps 628 mmHg 91%
    19:00 -6°C° 0.1 mm 1 mps 628 mmHg 95%
    20:00 -6°C° 0.2 mm 1 mps 628 mmHg 95%
    21:00 -6°C° 0.2 mm 1 mps 629 mmHg 96%
    22:00 -6°C° 0.2 mm 1 mps 629 mmHg 96%
    23:00 -6°C° 0.2 mm 1 mps 629 mmHg 97%

    Day after tomorrow, 27 March, Wednesday

    Time Temperature Precipitation Wind Pressure Humidity
    00:00 -6°C° 0.2 mm 1 mps 629 mmHg 97%
    01:00 -7°C° 0.2 mm 1 mps 629 mmHg 97%
    02:00 -7°C° 0.1 mm 1 mps 629 mmHg 97%
    03:00 -7°C° 0.1 mm 1 mps 629 mmHg 96%
    04:00 -7°C° 0.1 mm 1 mps 628 mmHg 96%
    05:00 -7°C° 0.1 mm 1 mps 629 mmHg 95%
    06:00 -7°C° 0.1 mm 1 mps 629 mmHg 94%
    07:00 -7°C° 0.1 mm 1 mps 629 mmHg 93%
    08:00 -6°C° 0.2 mm 1 mps 629 mmHg 90%
    09:00 -4°C° 0.2 mm 1 mps 630 mmHg 87%
    10:00 -3°C° 0.2 mm 1 mps 630 mmHg 85%
    11:00 -2°C° 0.2 mm 1 mps 630 mmHg 84%
    12:00 -2°C° 0.2 mm 1 mps 630 mmHg 84%
    13:00 -1°C° 0.2 mm 1 mps 630 mmHg 83%
    14:00 -1°C° 0.1 mm 1 mps 630 mmHg 84%
    15:00 -1°C° 0.1 mm 1 mps 630 mmHg 84%
    16:00 -1°C° 0.1 mm 1 mps 630 mmHg 85%
    17:00 -2°C° 0 mm 1 mps 630 mmHg 88%
    18:00 -4°C° 0 mm 0 mps 630 mmHg 91%
    19:00 -5°C° 0 mm 0 mps 630 mmHg 94%
    20:00 -6°C° 0 mm 0 mps 630 mmHg 94%
    21:00 -7°C° 0 mm 0 mps 630 mmHg 95%
    22:00 -7°C° 0 mm 1 mps 630 mmHg 95%
    23:00 -8°C° 0 mm 1 mps 630 mmHg 94%

    28 March, Thursday

    Time Temperature Precipitation Wind Pressure Humidity
    00:00 -8°C° 0 mm 1 mps 630 mmHg 94%
    01:00 -8°C° 0 mm 1 mps 630 mmHg 93%
    02:00 -8°C° 0 mm 1 mps 630 mmHg 93%
    03:00 -8°C° 0 mm 1 mps 630 mmHg 92%
    04:00 -8°C° 0 mm 1 mps 630 mmHg 91%
    05:00 -8°C° 0 mm 1 mps 630 mmHg 90%
    06:00 -7°C° 0 mm 1 mps 631 mmHg 89%
    07:00 -7°C° 0 mm 1 mps 631 mmHg 88%
    08:00 -3°C° 0 mm 1 mps 632 mmHg 86%
    09:00 -1°C° 0 mm 1 mps 632 mmHg 84%
    10:00 +1°C° 0 mm 1 mps 633 mmHg 83%
    11:00 +2°C° 0 mm 1 mps 633 mmHg 82%
    12:00 +2°C° 0 mm 1 mps 633 mmHg 82%
    13:00 +3°C° 0 mm 1 mps 633 mmHg 82%
    14:00 +2°C° 0 mm 1 mps 632 mmHg 83%
    15:00 +2°C° 0 mm 1 mps 632 mmHg 84%
    16:00 +2°C° 0 mm 1 mps 632 mmHg 84%
    17:00 +1°C° 0 mm 1 mps 632 mmHg 88%
    18:00 -1°C° 0 mm 1 mps 631 mmHg 92%
    19:00 -3°C° 0 mm 0 mps 631 mmHg 95%
    20:00 -3°C° 0 mm 1 mps 631 mmHg 95%
    21:00 -3°C° 0 mm 1 mps 632 mmHg 95%
    22:00 -4°C° 0 mm 1 mps 632 mmHg 95%
    23:00 -4°C° 0 mm 1 mps 632 mmHg 95%

    29 March, Friday

    Time Temperature Precipitation Wind Pressure Humidity
    00:00 -4°C° 0 mm 1 mps 632 mmHg 94%
    01:00 -6°C° 0 mm 1 mps 632 mmHg 93%
    02:00 -7°C° 0 mm 2 mps 632 mmHg 93%
    03:00 -7°C° 0 mm 2 mps 631 mmHg 92%
    04:00 -7°C° 0 mm 2 mps 631 mmHg 91%
    05:00 -7°C° 0 mm 2 mps 632 mmHg 90%
    06:00 -6°C° 0 mm 2 mps 632 mmHg 89%
    07:00 -6°C° 0 mm 2 mps 632 mmHg 87%
    08:00 -1°C° 0 mm 1 mps 633 mmHg 83%
    09:00 +1°C° 0 mm 1 mps 634 mmHg 78%
    10:00 +4°C° 0 mm 1 mps 634 mmHg 73%
    11:00 +5°C° 0 mm 1 mps 634 mmHg 70%
    12:00 +6°C° 0 mm 1 mps 634 mmHg 68%
    13:00 +7°C° 0 mm 1 mps 634 mmHg 65%
    14:00 +7°C° 0 mm 1 mps 634 mmHg 66%
    15:00 +7°C° 0 mm 1 mps 633 mmHg 67%
    16:00 +7°C° 0 mm 1 mps 633 mmHg 69%
    17:00 +4°C° 0 mm 1 mps 632 mmHg 73%
    18:00 +2°C° 0 mm 1 mps 632 mmHg 78%
    19:00 0°C° 0 mm 1 mps 631 mmHg 82%
    20:00 -1°C° 0 mm 1 mps 631 mmHg 82%
    21:00 -1°C° 0 mm 1 mps 631 mmHg 82%
    22:00 -4°C° 0 mm 2 mps 631 mmHg 81%
    23:00 -4°C° 0 mm 2 mps 631 mmHg 80%

    30 March, Saturday

    Time Temperature Precipitation Wind Pressure Humidity
    00:00 -5°C° 0 mm 2 mps 631 mmHg 79%
    01:00 -5°C° 0 mm 2 mps 631 mmHg 77%
    02:00 -5°C° 0 mm 2 mps 631 mmHg 77%
    03:00 -5°C° 0 mm 2 mps 630 mmHg 76%
    04:00 -5°C° 0 mm 2 mps 630 mmHg 75%
    05:00 -3°C° 0 mm 1 mps 631 mmHg 75%
    06:00 -2°C° 0 mm 1 mps 631 mmHg 75%
    07:00 -1°C° 0 mm 1 mps 631 mmHg 74%
    08:00 +1°C° 0 mm 1 mps 632 mmHg 71%
    09:00 +4°C° 0 mm 1 mps 632 mmHg 67%
    10:00 +6°C° 0 mm 0 mps 633 mmHg 63%
    11:00 +6°C° 0 mm 0 mps 633 mmHg 62%
    12:00 +8°C° 0 mm 1 mps 633 mmHg 60%
    13:00 +9°C° 0 mm 1 mps 632 mmHg 58%
    14:00 +9°C° 0 mm 1 mps 632 mmHg 61%
    15:00 +8°C° 0 mm 1 mps 631 mmHg 64%
    16:00 +8°C° 0 mm 1 mps 631 mmHg 66%
    17:00 +6°C° 0 mm 1 mps 630 mmHg 73%
    18:00 +2°C° 0 mm 0 mps 629 mmHg 81%
    19:00 0°C° 0 mm 0 mps 628 mmHg 88%
    20:00 -1°C° 0 mm 0 mps 628 mmHg 89%
    21:00 0°C° 0 mm 1 mps 629 mmHg 89%
    22:00 0°C° 0 mm 1 mps 629 mmHg 90%
    23:00 -1°C° 0 mm 1 mps 629 mmHg 90%
    Show more